User: anonymous   Login
Location: *
(10.4782°N, 67.2163°W)
Time: 04:37:36
(UTC+00:00)
Language:

Delta 202 - Orbit

View from above orbital plane
View from above orbital plane
View from above satellite
View from above satellite

Ground track
Ground track

The orbit data is extracted from the following two-line orbital elements,

1 21048U 91001B   24194.73695749  .00000165  00000-0  11999-4 0  9991
2 21048  18.4568 301.5348 1188458   1.3556 358.9670 11.85381527453100
Epoch (UTC): 12 July 2024 17:41:13
Eccentricity: 0.1188458
inclination: 18.4568°
perigee height: 781 km
apogee height: 2712 km
right ascension of ascending node: 301.5348°
argument of perigee: 1.3556°
revolutions per day: 11.85381527
mean anomaly at epoch: 358.9670°
orbit number at epoch: 45310

The dashed part of the orbit path shows where the satellite is in the earth's shadow,  

DLR